Tracking 19176 objects as of 25-May-2018
HD Live streaming from Space Station
objects crossing your sky now

NOAA 16 DEB

Track NOAA 16 DEB now!
10-day predictions


NORAD ID: 41092
Int'l Code: 2000-055BB
Perigee: 725.4 km
Apogee: 839.0 km
Inclination: 98.9 °
Period: 100.3 minutes
Semi major axis: 7153 km
RCS: Unknown
Launch date: September 21, 2000
Source: United States (US)
Launch site: AIR FORCE WESTERN TEST RANGE (AFWTR)

Note: This is SATELLITE DEBRIS
aabbcc
Your satellite tracking list
Your tracking list is empty




NASA's NSSDC Master Catalog

Two Line Element Set (TLE):
1 41092U 00055BB  18143.72988882 +.00002551 +00000-0 +88065-3 0  9998
2 41092 098.8754 247.8935 0079400 330.9681 028.7100 14.34987858129600
Source of the keplerian elements: AFSPC